EN

Hourly Weather Trostniki

Today, 19 April, Monday

Time Temperature Precipitation Wind Pressure Humidity
00:00 +5°C° 0.2 mm 4 mps 745 mmHg 92%
01:00 +5°C° 0.2 mm 4 mps 745 mmHg 92%
02:00 +4°C° 0.2 mm 4 mps 745 mmHg 92%
03:00 +4°C° 0 mm 4 mps 745 mmHg 93%
04:00 +4°C° 0.1 mm 4 mps 745 mmHg 92%
05:00 +4°C° 0.1 mm 4 mps 745 mmHg 91%
06:00 +5°C° 0.1 mm 5 mps 745 mmHg 90%
07:00 +5°C° 0.1 mm 5 mps 745 mmHg 89%
08:00 +4°C° 0.1 mm 6 mps 746 mmHg 89%
09:00 +4°C° 0.1 mm 6 mps 746 mmHg 89%
10:00 +4°C° 0.4 mm 6 mps 746 mmHg 87%
11:00 +4°C° 0.4 mm 6 mps 746 mmHg 85%
12:00 +5°C° 0.4 mm 6 mps 746 mmHg 84%
13:00 +5°C° 0.6 mm 6 mps 746 mmHg 84%
14:00 +4°C° 0.6 mm 6 mps 746 mmHg 85%
15:00 +4°C° 0.6 mm 6 mps 746 mmHg 85%
16:00 +4°C° 1 mm 6 mps 746 mmHg 87%
17:00 +4°C° 1 mm 6 mps 746 mmHg 89%
18:00 +4°C° 1 mm 6 mps 746 mmHg 90%
19:00 +3°C° 1 mm 7 mps 746 mmHg 91%
20:00 +3°C° 1 mm 7 mps 746 mmHg 91%
21:00 +3°C° 1 mm 7 mps 746 mmHg 92%
22:00 +2°C° 0.7 mm 7 mps 746 mmHg 92%
23:00 +2°C° 0.7 mm 7 mps 746 mmHg 93%

Tomorrow, 20 April, Tuesday

Time Temperature Precipitation Wind Pressure Humidity
00:00 +2°C° 0.7 mm 7 mps 745 mmHg 93%
01:00 +2°C° 0.1 mm 7 mps 745 mmHg 91%
02:00 +2°C° 0.1 mm 7 mps 745 mmHg 89%
03:00 +2°C° 0.1 mm 7 mps 745 mmHg 87%
04:00 +2°C° 0 mm 7 mps 745 mmHg 88%
05:00 +2°C° 0 mm 7 mps 745 mmHg 89%
06:00 +2°C° 0 mm 7 mps 744 mmHg 89%
07:00 +2°C° 0 mm 7 mps 744 mmHg 87%
08:00 +2°C° 0 mm 7 mps 744 mmHg 85%
09:00 +2°C° 0 mm 7 mps 744 mmHg 83%
10:00 +2°C° 0.1 mm 6 mps 744 mmHg 87%
11:00 +1°C° 0.1 mm 6 mps 744 mmHg 91%
12:00 +1°C° 0.1 mm 6 mps 744 mmHg 96%
13:00 -1°C° 0.3 mm 6 mps 743 mmHg 96%
14:00 -1°C° 0.3 mm 6 mps 743 mmHg 96%
15:00 -1°C° 0.3 mm 6 mps 742 mmHg 96%
16:00 -1°C° 0.2 mm 6 mps 741 mmHg 96%
17:00 -1°C° 0.2 mm 6 mps 741 mmHg 96%
18:00 -1°C° 0.2 mm 7 mps 740 mmHg 96%
19:00 -1°C° 1.2 mm 7 mps 739 mmHg 96%
20:00 -1°C° 1.2 mm 7 mps 738 mmHg 97%
21:00 -1°C° 1.2 mm 7 mps 737 mmHg 97%
22:00 -1°C° 3 mm 7 mps 736 mmHg 98%
23:00 -2°C° 3 mm 7 mps 734 mmHg 98%

Day after tomorrow, 21 April, Wednesday

Time Temperature Precipitation Wind Pressure Humidity
00:00 -2°C° 3 mm 7 mps 733 mmHg 99%
01:00 -1°C° 2 mm 7 mps 732 mmHg 98%
02:00 0°C° 2 mm 7 mps 730 mmHg 98%
03:00 +2°C° 2 mm 7 mps 729 mmHg 98%
04:00 +3°C° 1.6 mm 6 mps 729 mmHg 98%
05:00 +3°C° 1.6 mm 6 mps 728 mmHg 97%
06:00 +3°C° 1.6 mm 5 mps 727 mmHg 97%
07:00 +2°C° 0.3 mm 5 mps 728 mmHg 97%
08:00 +1°C° 0.3 mm 6 mps 728 mmHg 97%
09:00 -1°C° 0.3 mm 6 mps 729 mmHg 97%
10:00 -1°C° 0.1 mm 7 mps 730 mmHg 97%
11:00 -1°C° 0.1 mm 7 mps 732 mmHg 96%
12:00 -1°C° 0.1 mm 8 mps 733 mmHg 96%
13:00 0°C° 0 mm 8 mps 734 mmHg 93%
14:00 0°C° 0 mm 7 mps 735 mmHg 91%
15:00 +2°C° 0 mm 7 mps 736 mmHg 89%
16:00 +2°C° 0 mm 6 mps 737 mmHg 88%
17:00 +3°C° 0 mm 5 mps 738 mmHg 88%
18:00 +4°C° 0 mm 4 mps 738 mmHg 87%
19:00 +4°C° 0 mm 4 mps 739 mmHg 88%
20:00 +4°C° 0 mm 4 mps 739 mmHg 90%
21:00 +3°C° 0 mm 4 mps 740 mmHg 91%
22:00 +3°C° 0 mm 4 mps 740 mmHg 91%
23:00 +3°C° 0 mm 4 mps 740 mmHg 92%

22 April, Thursday

Time Temperature Precipitation Wind Pressure Humidity
00:00 +3°C° 0 mm 4 mps 740 mmHg 92%
01:00 +1°C° 0 mm 4 mps 741 mmHg 92%
02:00 +1°C° 0 mm 4 mps 741 mmHg 92%
03:00 +1°C° 0 mm 4 mps 741 mmHg 92%
04:00 +1°C° 0.1 mm 4 mps 741 mmHg 90%
05:00 +3°C° 0.1 mm 4 mps 741 mmHg 89%
06:00 +2°C° 0.1 mm 5 mps 741 mmHg 87%
07:00 +3°C° 0.1 mm 5 mps 742 mmHg 87%
08:00 +3°C° 0.1 mm 5 mps 742 mmHg 87%
09:00 +5°C° 0.1 mm 5 mps 743 mmHg 87%
10:00 +6°C° 0.1 mm 5 mps 743 mmHg 84%
11:00 +7°C° 0.1 mm 5 mps 743 mmHg 81%
12:00 +9°C° 0.1 mm 6 mps 743 mmHg 78%
13:00 +10°C° 0.2 mm 6 mps 743 mmHg 73%
14:00 +11°C° 0.2 mm 6 mps 743 mmHg 67%
15:00 +13°C° 0.2 mm 6 mps 743 mmHg 62%
16:00 +13°C° 0.3 mm 5 mps 743 mmHg 64%
17:00 +12°C° 0.3 mm 5 mps 743 mmHg 65%
18:00 +12°C° 0.3 mm 4 mps 744 mmHg 67%
19:00 +11°C° 0 mm 4 mps 744 mmHg 71%
20:00 +10°C° 0 mm 4 mps 744 mmHg 75%
21:00 +8°C° 0 mm 4 mps 744 mmHg 79%
22:00 +7°C° 0 mm 4 mps 744 mmHg 81%
23:00 +7°C° 0 mm 4 mps 744 mmHg 83%

23 April, Friday

Time Temperature Precipitation Wind Pressure Humidity
00:00 +6°C° 0 mm 4 mps 744 mmHg 85%
01:00 +7°C° 0 mm 3 mps 744 mmHg 86%
02:00 +7°C° 0 mm 3 mps 744 mmHg 87%
03:00 +5°C° 0 mm 3 mps 744 mmHg 87%
04:00 +5°C° 0 mm 3 mps 744 mmHg 88%
05:00 +5°C° 0 mm 3 mps 744 mmHg 89%
06:00 +5°C° 0 mm 3 mps 744 mmHg 90%
07:00 +7°C° 0 mm 4 mps 744 mmHg 84%
08:00 +9°C° 0 mm 5 mps 744 mmHg 77%
09:00 +10°C° 0 mm 5 mps 744 mmHg 71%
10:00 +13°C° 0 mm 6 mps 744 mmHg 65%
11:00 +14°C° 0 mm 6 mps 743 mmHg 60%
12:00 +15°C° 0 mm 6 mps 743 mmHg 54%
13:00 +15°C° 0.1 mm 6 mps 743 mmHg 53%
14:00 +15°C° 0.1 mm 6 mps 742 mmHg 51%
15:00 +16°C° 0.1 mm 6 mps 742 mmHg 50%
16:00 +15°C° 0 mm 5 mps 742 mmHg 55%
17:00 +14°C° 0 mm 5 mps 741 mmHg 60%
18:00 +13°C° 0 mm 5 mps 741 mmHg 64%
19:00 +12°C° 0 mm 5 mps 741 mmHg 66%
20:00 +10°C° 0 mm 5 mps 740 mmHg 68%
21:00 +10°C° 0 mm 5 mps 740 mmHg 70%
22:00 +9°C° 0.2 mm 5 mps 740 mmHg 74%
23:00 +8°C° 0.2 mm 5 mps 740 mmHg 79%

24 April, Saturday

Time Temperature Precipitation Wind Pressure Humidity
00:00 +8°C° 0.2 mm 4 mps 739 mmHg 83%
01:00 +7°C° 0.1 mm 4 mps 739 mmHg 86%
02:00 +8°C° 0.1 mm 3 mps 739 mmHg 90%
03:00 +7°C° 0.1 mm 2 mps 738 mmHg 93%
04:00 +5°C° 0.9 mm 3 mps 739 mmHg 92%
05:00 +5°C° 0.9 mm 3 mps 739 mmHg 91%
06:00 +4°C° 0.9 mm 4 mps 739 mmHg 90%
07:00 +5°C° 0.3 mm 4 mps 739 mmHg 84%
08:00 +5°C° 0.3 mm 4 mps 739 mmHg 79%
09:00 +6°C° 0.3 mm 4 mps 739 mmHg 73%
10:00 +7°C° 0.1 mm 5 mps 739 mmHg 67%
11:00 +8°C° 0.1 mm 6 mps 739 mmHg 61%
12:00 +8°C° 0.1 mm 7 mps 739 mmHg 56%
13:00 +9°C° 0.2 mm 8 mps 739 mmHg 52%
14:00 +9°C° 0.2 mm 8 mps 739 mmHg 48%
15:00 +8°C° 0.2 mm 9 mps 739 mmHg 45%
16:00 +7°C° 0 mm 8 mps 739 mmHg 47%
17:00 +8°C° 0 mm 7 mps 740 mmHg 48%
18:00 +7°C° 0 mm 6 mps 740 mmHg 50%
19:00 +6°C° 0 mm 5 mps 740 mmHg 55%
20:00 +5°C° 0 mm 4 mps 741 mmHg 59%
21:00 +4°C° 0 mm 3 mps 741 mmHg 64%
22:00 +4°C° 0 mm 2 mps 741 mmHg 66%
23:00 +3°C° 0 mm 2 mps 741 mmHg 68%
Show more

We Need Your Consent

Meteoprog and our Service Providers may store and access personal data such as cookies, device identifiers or other similar technologies on your device and process such data to personalise content and ads, as well as provide social media features and to analyse the traffic.

  • Store and/or access information on your device

    Cookies, device identifiers or other information can be stored or accessed on your device for the purposes indicated above.

  • Personalised ads and content, ad and content measurement, audience insights, and products development

    Ads and content can be personalised based on a profile. More data can be added to better personalise ads and content. Ad and content performance can be measured. Insights about the audience who saw the ads and content can be derived. Such data can be used to develop or improve user’s experience, systems and software.

By clicking ‘I Agree’ you will allow the use of indicated cookies, device identifiers, web beacons or other similar technologies. Your settings can be changed in the browser on your device.

For certain purposes, legitimate interests may be relied on, rather than consent. You can read more about this in our Privacy and Cookie Policy.